Time,TemperatureF,DewpointF,PressureIn,WindDirection,WindDirectionDegrees,WindSpeedMPH,WindSpeedGustMPH,Humidity,HourlyPrecipIn,Conditions,Clouds,dailyrainin,SoftwareType,DateUTC
2013-06-01 00:01:00,64.9,62.5,29.99,WNW,299,0.0,0.0,92,0.00,,,0.00,WUHU216DAVISVP2,2013-06-01 04:01:00,
2013-06-01 00:06:00,64.7,62.6,29.99,WNW,299,0.0,0.0,93,0.00,,,0.00,WUHU216DAVISVP2,2013-06-01 04:06:00,
2013-06-01 00:11:00,64.6,62.5,29.99,WNW,299,0.0,0.0,93,0.00,,,0.00,WUHU216DAVISVP2,2013-06-01 04:11:00,
2013-06-01 00:16:00,64.4,62.3,29.99,WNW,299,0.0,0.0,93,0.00,,,0.00,WUHU216DAVISVP2,2013-06-01 04:16:00,
2013-06-01 00:21:00,64.3,62.2,29.99,WNW,299,0.0,0.0,93,0.00,,,0.00,WUHU216DAVISVP2,2013-06-01 04:21:00,
2013-06-01 00:26:00,64.1,62.0,29.99,WNW,299,0.0,0.0,93,0.00,,,0.00,WUHU216DAVISVP2,2013-06-01 04:26:00,
2013-06-01 00:31:00,64.0,61.9,29.99,WNW,299,0.0,0.0,93,0.00,,,0.00,WUHU216DAVISVP2,2013-06-01 04:31:00,
2013-06-01 00:36:00,63.9,62.1,29.99,WNW,299,0.0,0.0,94,0.00,,,0.00,WUHU216DAVISVP2,2013-06-01 04:36:00,
2013-06-01 00:41:00,63.8,62.0,29.99,WNW,299,0.0,0.0,94,0.00,,,0.00,WUHU216DAVISVP2,2013-06-01 04:41:00,
2013-06-01 00:46:00,63.7,61.9,29.99,WNW,299,0.0,0.0,94,0.00,,,0.00,WUHU216DAVISVP2,2013-06-01 04:46:00,
2013-06-01 00:51:00,63.6,61.8,29.99,WNW,299,0.0,0.0,94,0.00,,,0.00,WUHU216DAVISVP2,2013-06-01 04:51:00,
2013-06-01 00:56:00,63.5,61.7,29.99,WNW,299,2.0,2.0,94,0.00,,,0.00,WUHU216DAVISVP2,2013-06-01 04:56:00,
2013-06-01 01:01:00,63.5,62.0,30.00,NW,326,0.0,7.0,95,0.00,,,0.00,WUHU216DAVISVP2,2013-06-01 05:01:00,
2013-06-01 01:06:00,63.6,62.1,29.99,SE,129,0.0,7.0,95,0.00,,,0.00,WUHU216DAVISVP2,2013-06-01 05:06:00,
2013-06-01 01:11:00,63.6,62.1,30.00,SW,235,0.0,7.0,95,0.00,,,0.00,WUHU216DAVISVP2,2013-06-01 05:11:00,
2013-06-01 01:16:00,63.7,62.2,29.99,SSW,206,0.0,7.0,95,0.00,,,0.00,WUHU216DAVISVP2,2013-06-01 05:16:00,
2013-06-01 01:21:00,63.7,62.2,29.99,SSE,153,0.0,3.0,95,0.00,,,0.00,WUHU216DAVISVP2,2013-06-01 05:21:00,
2013-06-01 01:26:00,63.7,62.2,29.99,SSE,153,0.0,3.0,95,0.00,,,0.00,WUHU216DAVISVP2,2013-06-01 05:26:00,
2013-06-01 01:31:00,63.6,62.1,29.99,SSE,154,0.0,1.0,95,0.00,,,0.00,WUHU216DAVISVP2,2013-06-01 05:31:00,
2013-06-01 01:36:00,63.6,62.1,30.00,SE,135,0.0,2.0,95,0.00,,,0.00,WUHU216DAVISVP2,2013-06-01 05:36:00,
2013-06-01 01:41:00,63.6,62.1,29.99,SE,135,0.0,2.0,95,0.00,,,0.00,WUHU216DAVISVP2,2013-06-01 05:41:00,
2013-06-01 01:46:00,63.6,62.1,29.99,SE,135,0.0,2.0,95,0.00,,,0.00,WUHU216DAVISVP2,2013-06-01 05:46:00,
2013-06-01 01:51:00,63.5,62.0,29.99,SE,135,0.0,2.0,95,0.00,,,0.00,WUHU216DAVISVP2,2013-06-01 05:51:00,
2013-06-01 01:56:00,63.4,61.9,29.99,SE,135,0.0,2.0,95,0.00,,,0.00,WUHU216DAVISVP2,2013-06-01 05:56:00,
2013-06-01 02:01:00,63.3,61.8,29.99,SE,135,0.0,2.0,95,0.00,,,0.00,WUHU216DAVISVP2,2013-06-01 06:01:00,
2013-06-01 02:06:00,63.4,61.9,29.99,SE,135,0.0,2.0,95,0.00,,,0.00,WUHU216DAVISVP2,2013-06-01 06:06:00,
2013-06-01 02:11:00,63.4,61.9,29.99,SE,135,0.0,1.0,95,0.00,,,0.00,WUHU216DAVISVP2,2013-06-01 06:11:00,
2013-06-01 02:16:00,63.4,61.9,30.00,SE,135,0.0,1.0,95,0.00,,,0.00,WUHU216DAVISVP2,2013-06-01 06:16:00,
2013-06-01 02:21:00,63.3,61.8,29.99,SE,135,0.0,1.0,95,0.00,,,0.00,WUHU216DAVISVP2,2013-06-01 06:21:00,
2013-06-01 02:26:00,63.3,61.8,29.99,SE,135,0.0,1.0,95,0.00,,,0.00,WUHU216DAVISVP2,2013-06-01 06:26:00,
2013-06-01 02:31:00,63.2,61.7,29.99,SE,135,0.0,1.0,95,0.00,,,0.00,WUHU216DAVISVP2,2013-06-01 06:31:00,
2013-06-01 02:36:00,63.1,61.6,29.99,SE,135,0.0,1.0,95,0.00,,,0.00,WUHU216DAVISVP2,2013-06-01 06:36:00,
2013-06-01 02:41:00,62.9,61.4,29.99,SE,135,0.0,1.0,95,0.00,,,0.00,WUHU216DAVISVP2,2013-06-01 06:41:00,
2013-06-01 02:46:00,62.8,61.3,29.99,SE,135,0.0,0.0,95,0.00,,,0.00,WUHU216DAVISVP2,2013-06-01 06:46:00,
2013-06-01 02:51:00,62.7,61.2,29.99,SE,135,0.0,0.0,95,0.00,,,0.00,WUHU216DAVISVP2,2013-06-01 06:51:00,
2013-06-01 02:56:00,62.6,61.1,29.99,SE,135,0.0,0.0,95,0.00,,,0.00,WUHU216DAVISVP2,2013-06-01 06:56:00,
2013-06-01 03:01:00,62.5,61.0,29.99,SE,135,0.0,1.0,95,0.00,,,0.00,WUHU216DAVISVP2,2013-06-01 07:01:00,
2013-06-01 03:06:00,62.3,60.8,29.99,SE,135,0.0,1.0,95,0.00,,,0.00,WUHU216DAVISVP2,2013-06-01 07:06:00,
2013-06-01 03:11:00,62.2,60.7,29.99,SE,135,0.0,1.0,95,0.00,,,0.00,WUHU216DAVISVP2,2013-06-01 07:11:00,
2013-06-01 03:16:00,62.1,60.6,29.99,SE,135,0.0,1.0,95,0.00,,,0.00,WUHU216DAVISVP2,2013-06-01 07:16:00,
2013-06-01 03:21:00,62.0,60.5,29.99,SE,135,0.0,0.0,95,0.00,,,0.00,WUHU216DAVISVP2,2013-06-01 07:21:00,
2013-06-01 03:26:00,61.9,60.5,29.99,SE,135,0.0,0.0,95,0.00,,,0.00,WUHU216DAVISVP2,2013-06-01 07:26:00,
2013-06-01 03:31:00,61.7,60.3,29.99,SE,135,0.0,0.0,95,0.00,,,0.00,WUHU216DAVISVP2,2013-06-01 07:31:00,
2013-06-01 03:36:00,61.7,60.5,29.99,SE,135,0.0,0.0,96,0.00,,,0.00,WUHU216DAVISVP2,2013-06-01 07:36:00,
2013-06-01 03:41:00,61.7,60.5,29.99,SE,135,0.0,0.0,96,0.00,,,0.00,WUHU216DAVISVP2,2013-06-01 07:41:00,
2013-06-01 03:46:00,61.6,60.4,29.99,SE,135,0.0,0.0,96,0.00,,,0.00,WUHU216DAVISVP2,2013-06-01 07:46:00,
2013-06-01 03:51:00,61.5,60.3,29.99,SE,135,0.0,0.0,96,0.00,,,0.00,WUHU216DAVISVP2,2013-06-01 07:51:00,
2013-06-01 03:56:00,61.4,60.2,29.99,SE,135,0.0,0.0,96,0.00,,,0.00,WUHU216DAVISVP2,2013-06-01 07:56:00,
2013-06-01 04:01:00,61.5,60.3,30.00,SE,135,0.0,0.0,96,0.00,,,0.00,WUHU216DAVISVP2,2013-06-01 08:01:00,
2013-06-01 04:06:00,61.5,60.3,30.00,ENE,75,2.0,3.0,96,0.00,,,0.00,WUHU216DAVISVP2,2013-06-01 08:06:00,
2013-06-01 04:11:00,61.7,60.8,30.01,ENE,64,1.0,3.0,97,0.00,,,0.00,WUHU216DAVISVP2,2013-06-01 08:11:00,
2013-06-01 04:16:00,61.8,60.9,30.00,NE,39,0.0,3.0,97,0.00,,,0.00,WUHU216DAVISVP2,2013-06-01 08:16:00,
2013-06-01 04:21:00,61.8,60.6,30.01,NE,39,0.0,3.0,96,0.00,,,0.00,WUHU216DAVISVP2,2013-06-01 08:21:00,
2013-06-01 04:26:00,61.8,60.9,30.00,NE,40,0.0,3.0,97,0.00,,,0.00,WUHU216DAVISVP2,2013-06-01 08:26:00,
2013-06-01 04:31:00,61.9,61.0,30.00,South,182,1.0,3.0,97,0.00,,,0.00,WUHU216DAVISVP2,2013-06-01 08:31:00,
2013-06-01 04:36:00,62.0,61.1,30.00,South,182,0.0,3.0,97,0.00,,,0.00,WUHU216DAVISVP2,2013-06-01 08:36:00,
2013-06-01 04:41:00,62.1,61.2,30.00,SSW,193,0.0,4.0,97,0.00,,,0.00,WUHU216DAVISVP2,2013-06-01 08:41:00,
2013-06-01 04:46:00,62.1,61.2,30.01,South,188,0.0,4.0,97,0.00,,,0.00,WUHU216DAVISVP2,2013-06-01 08:46:00,
2013-06-01 04:51:00,62.2,61.3,30.01,South,188,0.0,4.0,97,0.00,,,0.00,WUHU216DAVISVP2,2013-06-01 08:51:00,
2013-06-01 04:56:00,62.4,61.5,30.01,SE,135,0.0,4.0,97,0.00,,,0.00,WUHU216DAVISVP2,2013-06-01 08:56:00,
2013-06-01 05:01:00,62.4,61.5,30.01,East,87,3.0,3.0,97,0.00,,,0.00,WUHU216DAVISVP2,2013-06-01 09:01:00,
2013-06-01 05:06:00,62.4,61.5,30.00,East,87,0.0,3.0,97,0.00,,,0.00,WUHU216DAVISVP2,2013-06-01 09:06:00,
2013-06-01 05:11:00,62.3,61.1,30.00,ENE,60,0.0,3.0,96,0.00,,,0.00,WUHU216DAVISVP2,2013-06-01 09:11:00,
2013-06-01 05:16:00,62.2,61.0,30.00,ENE,63,0.0,3.0,96,0.00,,,0.00,WUHU216DAVISVP2,2013-06-01 09:16:00,
2013-06-01 05:21:00,62.2,61.3,29.99,ENE,63,0.0,3.0,97,0.00,,,0.00,WUHU216DAVISVP2,2013-06-01 09:21:00,
2013-06-01 05:26:00,62.3,61.4,29.99,ENE,63,0.0,2.0,97,0.00,,,0.00,WUHU216DAVISVP2,2013-06-01 09:26:00,
2013-06-01 05:31:00,62.3,61.4,29.99,ENE,63,0.0,2.0,97,0.00,,,0.00,WUHU216DAVISVP2,2013-06-01 09:31:00,
2013-06-01 05:36:00,62.3,61.4,29.99,ENE,63,0.0,2.0,97,0.00,,,0.00,WUHU216DAVISVP2,2013-06-01 09:36:00,
2013-06-01 05:41:00,62.3,61.4,29.99,ENE,63,0.0,1.0,97,0.00,,,0.00,WUHU216DAVISVP2,2013-06-01 09:41:00,
2013-06-01 05:46:00,62.3,61.4,29.99,ENE,63,0.0,2.0,97,0.00,,,0.00,WUHU216DAVISVP2,2013-06-01 09:46:00,
2013-06-01 05:51:00,62.3,61.4,29.99,ENE,63,0.0,2.0,97,0.00,,,0.00,WUHU216DAVISVP2,2013-06-01 09:51:00,
2013-06-01 05:56:00,62.4,61.5,29.99,ENE,63,0.0,2.0,97,0.00,,,0.00,WUHU216DAVISVP2,2013-06-01 09:56:00,
2013-06-01 06:01:00,62.5,61.6,29.99,ENE,63,0.0,2.0,97,0.00,,,0.00,WUHU216DAVISVP2,2013-06-01 10:01:00,
2013-06-01 06:06:00,62.5,61.6,29.99,ENE,63,0.0,1.0,97,0.00,,,0.00,WUHU216DAVISVP2,2013-06-01 10:06:00,
2013-06-01 06:11:00,62.5,61.6,29.99,ENE,63,0.0,1.0,97,0.00,,,0.00,WUHU216DAVISVP2,2013-06-01 10:11:00,
2013-06-01 06:16:00,62.5,61.6,29.99,ENE,63,0.0,1.0,97,0.00,,,0.00,WUHU216DAVISVP2,2013-06-01 10:16:00,
2013-06-01 06:21:00,62.5,61.6,29.99,ENE,63,0.0,0.0,97,0.00,,,0.00,WUHU216DAVISVP2,2013-06-01 10:21:00,
2013-06-01 06:26:00,62.5,61.6,29.99,ENE,63,0.0,0.0,97,0.00,,,0.00,WUHU216DAVISVP2,2013-06-01 10:26:00,
2013-06-01 06:31:00,62.6,61.7,29.99,ENE,63,0.0,0.0,97,0.01,,,0.01,WUHU216DAVISVP2,2013-06-01 10:31:00,
2013-06-01 06:36:00,62.6,61.7,29.99,ENE,63,0.0,1.0,97,0.01,,,0.01,WUHU216DAVISVP2,2013-06-01 10:36:00,
2013-06-01 06:41:00,62.6,61.7,29.99,ENE,63,0.0,1.0,97,0.01,,,0.01,WUHU216DAVISVP2,2013-06-01 10:41:00,
2013-06-01 06:46:00,62.6,61.7,29.99,ENE,63,0.0,1.0,97,0.01,,,0.01,WUHU216DAVISVP2,2013-06-01 10:46:00,
2013-06-01 06:51:00,62.6,61.7,30.00,ENE,63,0.0,1.0,97,0.01,,,0.01,WUHU216DAVISVP2,2013-06-01 10:51:00,
2013-06-01 06:56:00,62.6,61.7,30.00,ENE,63,0.0,1.0,97,0.01,,,0.01,WUHU216DAVISVP2,2013-06-01 10:56:00,
2013-06-01 07:01:00,62.7,61.8,30.00,ENE,63,0.0,1.0,97,0.01,,,0.01,WUHU216DAVISVP2,2013-06-01 11:01:00,
2013-06-01 07:06:00,62.7,61.8,30.00,ENE,65,0.0,1.0,97,0.01,,,0.01,WUHU216DAVISVP2,2013-06-01 11:06:00,
2013-06-01 07:11:00,62.8,61.9,30.00,ENE,65,0.0,0.0,97,0.01,,,0.01,WUHU216DAVISVP2,2013-06-01 11:11:00,
2013-06-01 07:16:00,62.7,61.8,30.00,ENE,65,0.0,0.0,97,0.01,,,0.01,WUHU216DAVISVP2,2013-06-01 11:16:00,
2013-06-01 07:21:00,62.8,61.9,30.00,ENE,65,0.0,1.0,97,0.01,,,0.01,WUHU216DAVISVP2,2013-06-01 11:21:00,
2013-06-01 07:26:00,62.9,62.0,30.00,ENE,65,0.0,1.0,97,0.01,,,0.01,WUHU216DAVISVP2,2013-06-01 11:26:00,
2013-06-01 07:31:00,62.9,62.0,30.00,ENE,65,0.0,1.0,97,0.00,,,0.01,WUHU216DAVISVP2,2013-06-01 11:31:00,
2013-06-01 07:36:00,63.0,62.1,30.00,ENE,65,0.0,1.0,97,0.00,,,0.01,WUHU216DAVISVP2,2013-06-01 11:36:00,
2013-06-01 07:41:00,63.1,62.2,30.00,ENE,65,0.0,1.0,97,0.00,,,0.01,WUHU216DAVISVP2,2013-06-01 11:41:00,
2013-06-01 07:46:00,63.3,62.4,30.00,ENE,65,0.0,0.0,97,0.00,,,0.01,WUHU216DAVISVP2,2013-06-01 11:46:00,
2013-06-01 07:51:00,63.5,62.6,30.00,ENE,65,0.0,0.0,97,0.00,,,0.01,WUHU216DAVISVP2,2013-06-01 11:51:00,
2013-06-01 07:56:00,63.7,62.8,30.00,ENE,65,0.0,1.0,97,0.00,,,0.01,WUHU216DAVISVP2,2013-06-01 11:56:00,
2013-06-01 08:01:00,64.0,63.1,30.00,ENE,65,0.0,1.0,97,0.00,,,0.01,WUHU216DAVISVP2,2013-06-01 12:01:00,
2013-06-01 08:06:00,64.0,63.1,30.00,ENE,65,0.0,1.0,97,0.00,,,0.01,WUHU216DAVISVP2,2013-06-01 12:06:00,
2013-06-01 08:11:00,64.1,63.2,30.00,ENE,65,0.0,1.0,97,0.00,,,0.01,WUHU216DAVISVP2,2013-06-01 12:11:00,
2013-06-01 08:16:00,64.5,63.6,30.00,ENE,65,0.0,1.0,97,0.00,,,0.01,WUHU216DAVISVP2,2013-06-01 12:16:00,
2013-06-01 08:21:00,64.7,63.8,30.00,ENE,65,0.0,1.0,97,0.00,,,0.01,WUHU216DAVISVP2,2013-06-01 12:21:00,
2013-06-01 08:26:00,64.8,63.6,29.99,ENE,65,0.0,1.0,96,0.00,,,0.01,WUHU216DAVISVP2,2013-06-01 12:26:00,
2013-06-01 08:31:00,65.0,63.8,29.99,ENE,65,0.0,1.0,96,0.00,,,0.01,WUHU216DAVISVP2,2013-06-01 12:31:00,
2013-06-01 08:36:00,65.2,64.0,29.99,ENE,65,0.0,1.0,96,0.00,,,0.01,WUHU216DAVISVP2,2013-06-01 12:36:00,
2013-06-01 08:41:00,65.4,64.2,29.99,ENE,65,0.0,1.0,96,0.00,,,0.01,WUHU216DAVISVP2,2013-06-01 12:41:00,
2013-06-01 08:46:00,65.7,64.5,29.99,ENE,65,0.0,1.0,96,0.00,,,0.01,WUHU216DAVISVP2,2013-06-01 12:46:00,
2013-06-01 08:51:00,65.9,64.4,29.99,ENE,65,0.0,1.0,95,0.00,,,0.01,WUHU216DAVISVP2,2013-06-01 12:51:00,
2013-06-01 08:56:00,66.0,64.5,29.99,ENE,65,0.0,1.0,95,0.00,,,0.01,WUHU216DAVISVP2,2013-06-01 12:56:00,
2013-06-01 09:01:00,66.4,64.9,29.99,ENE,65,0.0,1.0,95,0.00,,,0.01,WUHU216DAVISVP2,2013-06-01 13:01:00,
2013-06-01 09:06:00,66.7,65.2,29.99,ENE,65,1.0,1.0,95,0.00,,,0.01,WUHU216DAVISVP2,2013-06-01 13:06:00,
2013-06-01 09:11:00,67.0,65.5,29.99,ENE,65,0.0,2.0,95,0.00,,,0.01,WUHU216DAVISVP2,2013-06-01 13:11:00,
2013-06-01 09:16:00,67.3,65.5,29.99,ENE,65,0.0,2.0,94,0.00,,,0.01,WUHU216DAVISVP2,2013-06-01 13:16:00,
2013-06-01 09:21:00,67.7,65.9,29.98,ENE,65,0.0,2.0,94,0.00,,,0.01,WUHU216DAVISVP2,2013-06-01 13:21:00,
2013-06-01 09:26:00,68.0,65.9,29.99,ENE,66,0.0,2.0,93,0.00,,,0.01,WUHU216DAVISVP2,2013-06-01 13:26:00,
2013-06-01 09:31:00,68.3,65.9,29.99,ENE,67,0.0,1.0,92,0.00,,,0.01,WUHU216DAVISVP2,2013-06-01 13:31:00,
2013-06-01 09:36:00,68.7,66.3,29.98,ENE,67,0.0,1.0,92,0.00,,,0.01,WUHU216DAVISVP2,2013-06-01 13:36:00,
2013-06-01 09:41:00,69.3,66.8,29.98,ENE,67,0.0,1.0,92,0.00,,,0.01,WUHU216DAVISVP2,2013-06-01 13:41:00,
2013-06-01 09:46:00,69.8,67.0,29.98,ENE,68,0.0,1.0,91,0.00,,,0.01,WUHU216DAVISVP2,2013-06-01 13:46:00,
2013-06-01 09:51:00,70.1,66.7,29.97,ENE,67,0.0,1.0,89,0.00,,,0.01,WUHU216DAVISVP2,2013-06-01 13:51:00,
2013-06-01 09:56:00,70.6,67.5,29.97,ENE,67,0.0,2.0,90,0.00,,,0.01,WUHU216DAVISVP2,2013-06-01 13:56:00,
2013-06-01 10:01:00,71.0,67.6,29.97,ENE,67,1.0,2.0,89,0.00,,,0.01,WUHU216DAVISVP2,2013-06-01 14:01:00,
2013-06-01 10:06:00,71.3,67.6,29.97,ENE,67,0.0,2.0,88,0.00,,,0.01,WUHU216DAVISVP2,2013-06-01 14:06:00,
2013-06-01 10:11:00,71.7,67.6,29.97,ENE,67,0.0,2.0,87,0.00,,,0.01,WUHU216DAVISVP2,2013-06-01 14:11:00,
2013-06-01 10:16:00,72.3,67.9,29.97,ENE,64,2.0,2.0,86,0.00,,,0.01,WUHU216DAVISVP2,2013-06-01 14:16:00,
2013-06-01 10:21:00,72.9,67.8,29.96,ENE,62,0.0,3.0,84,0.00,,,0.01,WUHU216DAVISVP2,2013-06-01 14:21:00,
2013-06-01 10:26:00,73.4,68.3,29.96,East,80,2.0,3.0,84,0.00,,,0.01,WUHU216DAVISVP2,2013-06-01 14:26:00,
2013-06-01 10:31:00,74.2,68.8,29.96,ESE,104,1.0,3.0,83,0.00,,,0.01,WUHU216DAVISVP2,2013-06-01 14:31:00,
2013-06-01 10:36:00,75.2,70.4,29.96,ESE,107,0.0,3.0,85,0.00,,,0.01,WUHU216DAVISVP2,2013-06-01 14:36:00,
2013-06-01 10:41:00,75.9,69.4,29.95,ESE,102,3.0,3.0,80,0.00,,,0.01,WUHU216DAVISVP2,2013-06-01 14:41:00,
2013-06-01 10:46:00,76.5,69.6,29.95,ESE,122,1.0,3.0,79,0.00,,,0.01,WUHU216DAVISVP2,2013-06-01 14:46:00,
2013-06-01 10:51:00,77.2,69.2,29.95,WNW,287,0.0,3.0,76,0.00,,,0.01,WUHU216DAVISVP2,2013-06-01 14:51:00,
2013-06-01 10:56:00,78.1,68.1,29.94,SSE,160,1.0,7.0,71,0.00,,,0.01,WUHU216DAVISVP2,2013-06-01 14:56:00,
2013-06-01 11:01:00,78.8,67.6,29.94,WSW,258,1.0,7.0,68,0.00,,,0.01,WUHU216DAVISVP2,2013-06-01 15:01:00,
2013-06-01 11:06:00,79.6,68.1,29.94,SW,225,5.0,7.0,68,0.00,,,0.01,WUHU216DAVISVP2,2013-06-01 15:06:00,
2013-06-01 11:11:00,80.1,67.3,29.94,South,181,1.0,7.0,65,0.00,,,0.01,WUHU216DAVISVP2,2013-06-01 15:11:00,
2013-06-01 11:16:00,80.6,67.7,29.94,ESE,112,2.0,13.0,65,0.00,,,0.01,WUHU216DAVISVP2,2013-06-01 15:16:00,
2013-06-01 11:21:00,81.2,67.4,29.94,SSW,204,2.0,13.0,63,0.00,,,0.01,WUHU216DAVISVP2,2013-06-01 15:21:00,
2013-06-01 11:26:00,81.8,66.8,29.94,SW,216,0.0,13.0,60,0.00,,,0.01,WUHU216DAVISVP2,2013-06-01 15:26:00,
2013-06-01 11:31:00,82.1,65.6,29.94,SSW,194,6.0,13.0,57,0.00,,,0.01,WUHU216DAVISVP2,2013-06-01 15:31:00,
2013-06-01 11:36:00,82.3,65.2,29.94,SW,220,3.0,12.0,56,0.00,,,0.01,WUHU216DAVISVP2,2013-06-01 15:36:00,
2013-06-01 11:41:00,82.4,64.8,29.94,SW,231,4.0,12.0,55,0.00,,,0.01,WUHU216DAVISVP2,2013-06-01 15:41:00,
2013-06-01 11:46:00,82.5,66.5,29.93,SW,232,6.0,12.0,58,0.00,,,0.01,WUHU216DAVISVP2,2013-06-01 15:46:00,
2013-06-01 11:51:00,82.8,64.6,29.94,West,259,0.0,12.0,54,0.00,,,0.01,WUHU216DAVISVP2,2013-06-01 15:51:00,
2013-06-01 11:56:00,83.3,65.1,29.93,West,276,1.0,11.0,54,0.00,,,0.01,WUHU216DAVISVP2,2013-06-01 15:56:00,
2013-06-01 12:01:00,83.4,64.7,29.93,SSE,160,1.0,12.0,53,0.00,,,0.01,WUHU216DAVISVP2,2013-06-01 16:01:00,
2013-06-01 12:06:00,83.7,65.5,29.94,SSW,209,14.0,14.0,54,0.00,,,0.01,WUHU216DAVISVP2,2013-06-01 16:06:00,
2013-06-01 12:11:00,83.5,64.2,29.93,WSW,257,4.0,17.0,52,0.00,,,0.01,WUHU216DAVISVP2,2013-06-01 16:11:00,
2013-06-01 12:16:00,83.3,65.1,29.93,SW,227,5.0,17.0,54,0.00,,,0.01,WUHU216DAVISVP2,2013-06-01 16:16:00,
2013-06-01 12:21:00,83.2,65.0,29.93,SSW,205,0.0,17.0,54,0.00,,,0.01,WUHU216DAVISVP2,2013-06-01 16:21:00,
2013-06-01 12:26:00,83.4,64.7,29.93,SSW,197,3.0,12.0,53,0.00,,,0.01,WUHU216DAVISVP2,2013-06-01 16:26:00,
2013-06-01 12:31:00,83.5,64.8,29.93,SSW,199,2.0,12.0,53,0.00,,,0.01,WUHU216DAVISVP2,2013-06-01 16:31:00,
2013-06-01 12:36:00,83.8,65.0,29.93,NW,304,5.0,12.0,53,0.00,,,0.01,WUHU216DAVISVP2,2013-06-01 16:36:00,
2013-06-01 12:41:00,84.0,64.7,29.92,SSW,195,7.0,11.0,52,0.00,,,0.01,WUHU216DAVISVP2,2013-06-01 16:41:00,
2013-06-01 12:46:00,83.5,64.6,29.92,SSW,193,7.0,13.0,53,0.00,,,0.01,WUHU216DAVISVP2,2013-06-01 16:46:00,
2013-06-01 12:51:00,83.7,66.3,29.92,SSW,210,3.0,13.0,56,0.00,,,0.01,WUHU216DAVISVP2,2013-06-01 16:51:00,
2013-06-01 12:56:00,84.5,64.9,29.92,West,264,0.0,13.0,52,0.00,,,0.01,WUHU216DAVISVP2,2013-06-01 16:56:00,
2013-06-01 13:01:00,85.1,65.7,29.92,SSE,167,0.0,13.0,52,0.00,,,0.01,WUHU216DAVISVP2,2013-06-01 17:01:00,
2013-06-01 13:06:00,85.0,64.4,29.92,SSW,199,4.0,12.0,50,0.00,,,0.01,WUHU216DAVISVP2,2013-06-01 17:06:00,
2013-06-01 13:11:00,84.9,64.9,29.92,SSW,205,1.0,11.0,51,0.00,,,0.01,WUHU216DAVISVP2,2013-06-01 17:11:00,
2013-06-01 13:16:00,84.8,64.8,29.92,SW,228,2.0,11.0,51,0.00,,,0.01,WUHU216DAVISVP2,2013-06-01 17:16:00,
2013-06-01 13:21:00,84.6,65.2,29.92,SW,232,5.0,10.0,52,0.00,,,0.01,WUHU216DAVISVP2,2013-06-01 17:21:00,
2013-06-01 13:26:00,84.4,64.5,29.92,WSW,245,3.0,10.0,51,0.00,,,0.01,WUHU216DAVISVP2,2013-06-01 17:26:00,
2013-06-01 13:31:00,84.5,65.7,29.92,SSW,203,7.0,10.0,53,0.00,,,0.01,WUHU216DAVISVP2,2013-06-01 17:31:00,
2013-06-01 13:36:00,84.4,63.9,29.92,SSW,198,6.0,10.0,50,0.00,,,0.01,WUHU216DAVISVP2,2013-06-01 17:36:00,
2013-06-01 13:41:00,84.1,64.2,29.92,SW,214,4.0,10.0,51,0.00,,,0.01,WUHU216DAVISVP2,2013-06-01 17:41:00,
2013-06-01 13:46:00,84.2,66.5,29.92,ESE,102,0.0,10.0,55,0.00,,,0.01,WUHU216DAVISVP2,2013-06-01 17:46:00,
2013-06-01 13:51:00,84.7,64.1,29.92,SW,226,9.0,11.0,50,0.00,,,0.01,WUHU216DAVISVP2,2013-06-01 17:51:00,
2013-06-01 13:56:00,84.8,64.2,29.92,SSW,204,5.0,11.0,50,0.00,,,0.01,WUHU216DAVISVP2,2013-06-01 17:56:00,
2013-06-01 14:01:00,85.2,64.6,29.92,SW,228,9.0,11.0,50,0.00,,,0.01,WUHU216DAVISVP2,2013-06-01 18:01:00,
2013-06-01 14:06:00,85.5,65.5,29.91,SSW,197,5.0,12.0,51,0.00,,,0.01,WUHU216DAVISVP2,2013-06-01 18:06:00,
2013-06-01 14:11:00,85.5,64.3,29.91,SSW,210,7.0,12.0,49,0.00,,,0.01,WUHU216DAVISVP2,2013-06-01 18:11:00,
2013-06-01 14:16:00,85.8,66.9,29.91,SW,226,3.0,11.0,53,0.00,,,0.01,WUHU216DAVISVP2,2013-06-01 18:16:00,
2013-06-01 14:21:00,86.4,65.7,29.90,SW,231,0.0,10.0,50,0.00,,,0.01,WUHU216DAVISVP2,2013-06-01 18:21:00,
2013-06-01 14:26:00,86.6,64.6,29.90,South,183,2.0,11.0,48,0.00,,,0.01,WUHU216DAVISVP2,2013-06-01 18:26:00,
2013-06-01 14:31:00,86.5,65.7,29.90,SW,219,1.0,11.0,50,0.00,,,0.01,WUHU216DAVISVP2,2013-06-01 18:31:00,
2013-06-01 14:36:00,86.8,65.3,29.90,SW,227,7.0,11.0,49,0.00,,,0.01,WUHU216DAVISVP2,2013-06-01 18:36:00,
2013-06-01 14:41:00,86.9,64.8,29.89,WSW,244,1.0,11.0,48,0.00,,,0.01,WUHU216DAVISVP2,2013-06-01 18:41:00,
2013-06-01 14:46:00,86.8,64.2,29.89,WSW,251,4.0,9.0,47,0.00,,,0.01,WUHU216DAVISVP2,2013-06-01 18:46:00,
2013-06-01 14:51:00,86.8,64.3,29.89,South,187,3.0,9.0,47,0.00,,,0.01,WUHU216DAVISVP2,2013-06-01 18:51:00,
2013-06-01 14:56:00,87.1,64.5,29.89,SW,220,9.0,12.0,47,0.00,,,0.01,WUHU216DAVISVP2,2013-06-01 18:56:00,
2013-06-01 15:01:00,87.1,65.2,29.89,SSW,210,7.0,12.0,48,0.00,,,0.01,WUHU216DAVISVP2,2013-06-01 19:01:00,
2013-06-01 15:06:00,87.2,64.6,29.89,SSW,193,3.0,12.0,47,0.00,,,0.01,WUHU216DAVISVP2,2013-06-01 19:06:00,
2013-06-01 15:11:00,87.4,64.8,29.89,SSW,201,6.0,12.0,47,0.00,,,0.01,WUHU216DAVISVP2,2013-06-01 19:11:00,
2013-06-01 15:16:00,87.3,64.1,29.88,ESE,114,1.0,10.0,46,0.00,,,0.01,WUHU216DAVISVP2,2013-06-01 19:16:00,
2013-06-01 15:21:00,87.5,64.9,29.88,SW,228,6.0,12.0,47,0.00,,,0.01,WUHU216DAVISVP2,2013-06-01 19:21:00,
2013-06-01 15:26:00,87.7,65.1,29.88,SSW,212,1.0,12.0,47,0.00,,,0.01,WUHU216DAVISVP2,2013-06-01 19:26:00,
2013-06-01 15:31:00,88.3,66.3,29.88,SW,221,3.0,12.0,48,0.00,,,0.01,WUHU216DAVISVP2,2013-06-01 19:31:00,
2013-06-01 15:36:00,88.7,66.0,29.88,WNW,291,4.0,12.0,47,0.00,,,0.01,WUHU216DAVISVP2,2013-06-01 19:36:00,
2013-06-01 15:41:00,88.5,63.9,29.87,SW,232,5.0,12.0,44,0.00,,,0.01,WUHU216DAVISVP2,2013-06-01 19:41:00,
2013-06-01 15:46:00,88.4,65.7,29.87,South,178,0.0,12.0,47,0.00,,,0.01,WUHU216DAVISVP2,2013-06-01 19:46:00,
2013-06-01 15:51:00,88.4,64.4,29.87,South,188,3.0,12.0,45,0.00,,,0.01,WUHU216DAVISVP2,2013-06-01 19:51:00,
2013-06-01 15:56:00,88.2,64.2,29.87,SSW,192,7.0,12.0,45,0.00,,,0.01,WUHU216DAVISVP2,2013-06-01 19:56:00,
2013-06-01 16:01:00,87.9,64.5,29.87,WSW,239,2.0,15.0,46,0.00,,,0.01,WUHU216DAVISVP2,2013-06-01 20:01:00,
2013-06-01 16:06:00,87.9,64.5,29.87,SW,220,4.0,15.0,46,0.00,,,0.01,WUHU216DAVISVP2,2013-06-01 20:06:00,
2013-06-01 16:11:00,87.9,65.8,29.87,WSW,245,1.0,15.0,48,0.00,,,0.01,WUHU216DAVISVP2,2013-06-01 20:11:00,
2013-06-01 16:16:00,87.9,65.3,29.87,SSW,197,2.0,15.0,47,0.00,,,0.01,WUHU216DAVISVP2,2013-06-01 20:16:00,
2013-06-01 16:21:00,88.1,66.1,29.86,WSW,249,3.0,9.0,48,0.00,,,0.01,WUHU216DAVISVP2,2013-06-01 20:21:00,
2013-06-01 16:26:00,88.6,67.0,29.87,SW,214,10.0,11.0,49,0.00,,,0.01,WUHU216DAVISVP2,2013-06-01 20:26:00,
2013-06-01 16:31:00,88.4,64.4,29.86,South,191,7.0,11.0,45,0.00,,,0.01,WUHU216DAVISVP2,2013-06-01 20:31:00,
2013-06-01 16:36:00,88.1,64.7,29.86,SSW,195,7.0,11.0,46,0.00,,,0.01,WUHU216DAVISVP2,2013-06-01 20:36:00,
2013-06-01 16:41:00,88.0,65.8,29.86,SW,222,10.0,11.0,48,0.00,,,0.01,WUHU216DAVISVP2,2013-06-01 20:41:00,
2013-06-01 16:46:00,87.8,65.8,29.86,SSW,199,0.0,11.0,48,0.00,,,0.01,WUHU216DAVISVP2,2013-06-01 20:46:00,
2013-06-01 16:51:00,88.0,64.1,29.86,South,181,5.0,11.0,45,0.00,,,0.01,WUHU216DAVISVP2,2013-06-01 20:51:00,
2013-06-01 16:56:00,88.1,64.8,29.85,SSW,205,2.0,10.0,46,0.00,,,0.01,WUHU216DAVISVP2,2013-06-01 20:56:00,
2013-06-01 17:01:00,88.2,64.9,29.85,WSW,239,2.0,9.0,46,0.00,,,0.01,WUHU216DAVISVP2,2013-06-01 21:01:00,
2013-06-01 17:06:00,88.5,65.2,29.85,West,264,2.0,8.0,46,0.00,,,0.01,WUHU216DAVISVP2,2013-06-01 21:06:00,
2013-06-01 17:11:00,88.6,65.9,29.85,SW,218,1.0,8.0,47,0.00,,,0.01,WUHU216DAVISVP2,2013-06-01 21:11:00,
2013-06-01 17:16:00,88.7,65.4,29.86,SSW,206,4.0,9.0,46,0.00,,,0.01,WUHU216DAVISVP2,2013-06-01 21:16:00,
2013-06-01 17:21:00,88.7,66.0,29.86,SSW,201,3.0,10.0,47,0.00,,,0.01,WUHU216DAVISVP2,2013-06-01 21:21:00,
2013-06-01 17:26:00,88.0,64.7,29.86,SW,233,4.0,12.0,46,0.00,,,0.01,WUHU216DAVISVP2,2013-06-01 21:26:00,
2013-06-01 17:31:00,87.4,64.8,29.85,SSW,201,8.0,12.0,47,0.00,,,0.01,WUHU216DAVISVP2,2013-06-01 21:31:00,
2013-06-01 17:37:00,87.3,66.5,29.85,SSW,201,4.0,12.0,50,0.00,,,0.01,WUHU216DAVISVP2,2013-06-01 21:37:00,
2013-06-01 17:42:00,87.5,66.1,29.86,South,186,2.0,12.0,49,0.00,,,0.01,WUHU216DAVISVP2,2013-06-01 21:42:00,
2013-06-01 17:46:00,87.3,65.9,29.85,WSW,253,2.0,8.0,49,0.00,,,0.01,WUHU216DAVISVP2,2013-06-01 21:46:00,
2013-06-01 17:52:00,86.7,66.0,29.85,WNW,295,5.0,8.0,50,0.00,,,0.01,WUHU216DAVISVP2,2013-06-01 21:52:00,
2013-06-01 17:57:00,86.3,66.0,29.85,SW,235,0.0,8.0,51,0.00,,,0.01,WUHU216DAVISVP2,2013-06-01 21:57:00,
2013-06-01 18:02:00,86.0,66.3,29.85,SW,228,0.0,7.0,52,0.00,,,0.01,WUHU216DAVISVP2,2013-06-01 22:02:00,
2013-06-01 18:07:00,86.1,67.0,29.85,South,174,1.0,7.0,53,0.00,,,0.01,WUHU216DAVISVP2,2013-06-01 22:07:00,
2013-06-01 18:12:00,86.2,66.5,29.85,WSW,237,0.0,6.0,52,0.00,,,0.01,WUHU216DAVISVP2,2013-06-01 22:12:00,
2013-06-01 18:17:00,86.2,67.1,29.85,NW,322,2.0,6.0,53,0.00,,,0.01,WUHU216DAVISVP2,2013-06-01 22:17:00,
2013-06-01 18:22:00,86.0,66.9,29.85,NNW,331,4.0,8.0,53,0.00,,,0.01,WUHU216DAVISVP2,2013-06-01 22:22:00,
2013-06-01 18:27:00,86.1,67.2,29.85,NW,305,3.0,8.0,53,0.00,,,0.01,WUHU216DAVISVP2,2013-06-01 22:27:00,
2013-06-01 18:32:00,85.7,66.8,29.85,WNW,282,3.0,8.0,53,0.00,,,0.01,WUHU216DAVISVP2,2013-06-01 22:32:00,
2013-06-01 18:37:00,85.2,67.4,29.85,West,274,2.0,8.0,55,0.00,,,0.01,WUHU216DAVISVP2,2013-06-01 22:37:00,
2013-06-01 18:42:00,84.7,67.5,29.85,NW,323,5.0,7.0,56,0.00,,,0.01,WUHU216DAVISVP2,2013-06-01 22:42:00,
2013-06-01 18:47:00,84.4,67.2,29.85,NNW,338,3.0,7.0,56,0.00,,,0.01,WUHU216DAVISVP2,2013-06-01 22:47:00,
2013-06-01 18:52:00,83.9,66.7,29.85,West,277,1.0,6.0,56,0.00,,,0.01,WUHU216DAVISVP2,2013-06-01 22:52:00,
2013-06-01 18:57:00,83.6,67.5,29.85,NW,318,0.0,6.0,58,0.00,,,0.01,WUHU216DAVISVP2,2013-06-01 22:57:00,
2013-06-01 19:02:00,83.2,67.1,29.85,WNW,301,1.0,7.0,58,0.00,,,0.01,WUHU216DAVISVP2,2013-06-01 23:02:00,
2013-06-01 19:07:00,82.9,67.3,29.85,WNW,301,0.0,7.0,59,0.00,,,0.01,WUHU216DAVISVP2,2013-06-01 23:07:00,
2013-06-01 19:12:00,82.5,67.9,29.85,WNW,301,0.0,7.0,61,0.00,,,0.01,WUHU216DAVISVP2,2013-06-01 23:12:00,
2013-06-01 19:17:00,82.3,68.7,29.85,WNW,301,0.0,7.0,63,0.00,,,0.01,WUHU216DAVISVP2,2013-06-01 23:17:00,
2013-06-01 19:22:00,82.1,69.0,29.85,SSW,210,0.0,3.0,64,0.00,,,0.01,WUHU216DAVISVP2,2013-06-01 23:22:00,
2013-06-01 19:27:00,81.9,68.8,29.85,SSW,210,1.0,3.0,64,0.00,,,0.01,WUHU216DAVISVP2,2013-06-01 23:27:00,
2013-06-01 19:32:00,81.6,68.5,29.85,SSW,204,0.0,3.0,64,0.00,,,0.01,WUHU216DAVISVP2,2013-06-01 23:32:00,
2013-06-01 19:37:00,81.3,69.1,29.85,SSW,206,0.0,3.0,66,0.00,,,0.01,WUHU216DAVISVP2,2013-06-01 23:37:00,
2013-06-01 19:42:00,80.7,69.4,29.85,SSW,206,0.0,2.0,68,0.00,,,0.01,WUHU216DAVISVP2,2013-06-01 23:42:00,
2013-06-01 19:47:00,80.2,69.3,29.85,SSW,206,0.0,1.0,69,0.00,,,0.01,WUHU216DAVISVP2,2013-06-01 23:47:00,
2013-06-01 19:52:00,79.9,69.0,29.84,SSW,206,0.0,1.0,69,0.00,,,0.01,WUHU216DAVISVP2,2013-06-01 23:52:00,
2013-06-01 19:57:00,79.6,68.8,29.84,SSW,206,0.0,1.0,69,0.00,,,0.01,WUHU216DAVISVP2,2013-06-01 23:57:00,
2013-06-01 20:02:00,79.2,68.8,29.84,SSW,206,0.0,1.0,70,0.00,,,0.01,WUHU216DAVISVP2,2013-06-02 00:02:00,
2013-06-01 20:07:00,78.8,68.8,29.84,SSW,206,0.0,1.0,71,0.00,,,0.01,WUHU216DAVISVP2,2013-06-02 00:07:00,
2013-06-01 20:12:00,78.2,68.6,29.84,SSW,206,1.0,1.0,72,0.00,,,0.01,WUHU216DAVISVP2,2013-06-02 00:12:00,
2013-06-01 20:17:00,77.7,69.3,29.84,SSW,206,0.0,1.0,75,0.00,,,0.01,WUHU216DAVISVP2,2013-06-02 00:17:00,
2013-06-01 20:22:00,77.3,68.9,29.84,SSW,206,0.0,1.0,75,0.00,,,0.01,WUHU216DAVISVP2,2013-06-02 00:22:00,
2013-06-01 20:27:00,76.8,68.8,29.84,SSW,206,0.0,1.0,76,0.00,,,0.01,WUHU216DAVISVP2,2013-06-02 00:27:00,
2013-06-01 20:32:00,76.3,68.7,29.84,SSW,206,0.0,0.0,77,0.00,,,0.01,WUHU216DAVISVP2,2013-06-02 00:32:00,
2013-06-01 20:37:00,75.8,68.2,29.84,SSW,206,0.0,0.0,77,0.00,,,0.01,WUHU216DAVISVP2,2013-06-02 00:37:00,
2013-06-01 20:42:00,75.2,68.0,29.83,SSW,207,0.0,0.0,78,0.00,,,0.01,WUHU216DAVISVP2,2013-06-02 00:42:00,
2013-06-01 20:47:00,74.8,68.0,29.83,SSW,208,0.0,0.0,79,0.00,,,0.01,WUHU216DAVISVP2,2013-06-02 00:47:00,
2013-06-01 20:52:00,74.4,67.9,29.84,SSW,210,0.0,1.0,80,0.00,,,0.01,WUHU216DAVISVP2,2013-06-02 00:52:00,
2013-06-01 20:57:00,74.0,67.5,29.83,SSW,210,0.0,1.0,80,0.00,,,0.01,WUHU216DAVISVP2,2013-06-02 00:57:00,
2013-06-01 21:02:00,73.6,67.5,29.84,SSW,210,0.0,1.0,81,0.00,,,0.01,WUHU216DAVISVP2,2013-06-02 01:02:00,
2013-06-01 21:07:00,73.3,67.5,29.84,SSW,211,0.0,1.0,82,0.00,,,0.01,WUHU216DAVISVP2,2013-06-02 01:07:00,
2013-06-01 21:12:00,73.0,67.6,29.84,SSW,210,0.0,0.0,83,0.00,,,0.01,WUHU216DAVISVP2,2013-06-02 01:12:00,
2013-06-01 21:17:00,72.6,67.5,29.84,SSW,210,0.0,0.0,84,0.00,,,0.01,WUHU216DAVISVP2,2013-06-02 01:17:00,
2013-06-01 21:22:00,72.3,67.6,29.84,SSW,210,0.0,2.0,85,0.00,,,0.01,WUHU216DAVISVP2,2013-06-02 01:22:00,
2013-06-01 21:27:00,71.9,66.8,29.84,SSW,210,0.0,2.0,84,0.00,,,0.01,WUHU216DAVISVP2,2013-06-02 01:27:00,
2013-06-01 21:32:00,71.6,66.5,29.84,SSW,210,0.0,2.0,84,0.00,,,0.01,WUHU216DAVISVP2,2013-06-02 01:32:00,
2013-06-01 21:37:00,71.3,66.6,29.84,SSW,210,0.0,2.0,85,0.00,,,0.01,WUHU216DAVISVP2,2013-06-02 01:37:00,
2013-06-01 21:42:00,71.0,66.6,29.84,SSW,210,0.0,1.0,86,0.00,,,0.01,WUHU216DAVISVP2,2013-06-02 01:42:00,
2013-06-01 21:47:00,70.8,66.4,29.84,SSW,210,0.0,0.0,86,0.00,,,0.01,WUHU216DAVISVP2,2013-06-02 01:47:00,
2013-06-01 21:52:00,70.5,66.5,29.85,SSW,210,0.0,0.0,87,0.00,,,0.01,WUHU216DAVISVP2,2013-06-02 01:52:00,
2013-06-01 21:57:00,70.3,66.3,29.85,SSW,210,0.0,0.0,87,0.00,,,0.01,WUHU216DAVISVP2,2013-06-02 01:57:00,
2013-06-01 22:02:00,70.1,66.1,29.84,SSW,210,0.0,0.0,87,0.00,,,0.01,WUHU216DAVISVP2,2013-06-02 02:02:00,
2013-06-01 22:07:00,69.9,65.9,29.84,SSW,210,0.0,0.0,87,0.00,,,0.01,WUHU216DAVISVP2,2013-06-02 02:07:00,
2013-06-01 22:12:00,69.6,65.9,29.84,SSW,210,0.0,0.0,88,0.00,,,0.01,WUHU216DAVISVP2,2013-06-02 02:12:00,
2013-06-01 22:17:00,69.4,65.7,29.84,SSW,210,0.0,0.0,88,0.00,,,0.01,WUHU216DAVISVP2,2013-06-02 02:17:00,
2013-06-01 22:22:00,69.3,65.9,29.84,SSW,210,0.0,0.0,89,0.00,,,0.01,WUHU216DAVISVP2,2013-06-02 02:22:00,
2013-06-01 22:27:00,69.1,66.0,29.84,SSW,210,0.0,0.0,90,0.00,,,0.01,WUHU216DAVISVP2,2013-06-02 02:27:00,
2013-06-01 22:32:00,69.0,65.9,29.84,SSW,210,0.0,0.0,90,0.00,,,0.01,WUHU216DAVISVP2,2013-06-02 02:32:00,
2013-06-01 22:37:00,68.8,65.7,29.84,SSW,210,0.0,0.0,90,0.00,,,0.01,WUHU216DAVISVP2,2013-06-02 02:37:00,
2013-06-01 22:42:00,68.6,65.5,29.84,SSW,210,0.0,0.0,90,0.00,,,0.01,WUHU216DAVISVP2,2013-06-02 02:42:00,
2013-06-01 22:47:00,68.5,65.8,29.84,SSW,210,0.0,0.0,91,0.00,,,0.01,WUHU216DAVISVP2,2013-06-02 02:47:00,
2013-06-01 22:52:00,68.4,65.7,29.84,SSW,210,0.0,0.0,91,0.00,,,0.01,WUHU216DAVISVP2,2013-06-02 02:52:00,
2013-06-01 22:57:00,68.2,65.8,29.84,SSW,210,0.0,0.0,92,0.00,,,0.01,WUHU216DAVISVP2,2013-06-02 02:57:00,
2013-06-01 23:02:00,67.9,65.2,29.84,SSW,210,0.0,0.0,91,0.00,,,0.01,WUHU216DAVISVP2,2013-06-02 03:02:00,
2013-06-01 23:07:00,67.7,65.0,29.84,SSW,210,0.0,0.0,91,0.00,,,0.01,WUHU216DAVISVP2,2013-06-02 03:07:00,
2013-06-01 23:12:00,67.5,64.8,29.84,SSW,210,0.0,0.0,91,0.00,,,0.01,WUHU216DAVISVP2,2013-06-02 03:12:00,
2013-06-01 23:17:00,67.4,65.0,29.83,SSW,210,0.0,0.0,92,0.00,,,0.01,WUHU216DAVISVP2,2013-06-02 03:17:00,
2013-06-01 23:22:00,67.3,64.9,29.83,SSW,210,0.0,0.0,92,0.00,,,0.01,WUHU216DAVISVP2,2013-06-02 03:22:00,
2013-06-01 23:27:00,67.2,65.1,29.83,SSW,210,0.0,0.0,93,0.00,,,0.01,WUHU216DAVISVP2,2013-06-02 03:27:00,
2013-06-01 23:32:00,67.1,64.7,29.83,SSW,210,0.0,0.0,92,0.00,,,0.01,WUHU216DAVISVP2,2013-06-02 03:32:00,
2013-06-01 23:37:00,67.0,64.9,29.83,SSW,210,0.0,1.0,93,0.00,,,0.01,WUHU216DAVISVP2,2013-06-02 03:37:00,
2013-06-01 23:42:00,66.8,64.7,29.83,SSW,210,0.0,1.0,93,0.00,,,0.01,WUHU216DAVISVP2,2013-06-02 03:42:00,
2013-06-01 23:47:00,66.7,64.6,29.83,SSW,210,0.0,1.0,93,0.00,,,0.01,WUHU216DAVISVP2,2013-06-02 03:47:00,
2013-06-01 23:52:00,66.6,64.5,29.84,SSW,210,0.0,1.0,93,0.00,,,0.01,WUHU216DAVISVP2,2013-06-02 03:52:00,
2013-06-01 23:57:00,66.5,64.4,29.83,SSW,210,0.0,0.0,93,0.00,,,0.01,WUHU216DAVISVP2,2013-06-02 03:57:00,